Skip Page Navigation
NASA JPL Caltech
NASA Logo - Jet Propulsion Laboratory + View the NASA Portal
+ Center for Near-Earth Object Studies
JPL Home Earth Solar System Stars & Galaxies Technology
JPL Solar System Dynamics
BODIES ORBITS EPHEMERIDES TOOLS PHYSICAL DATA DISCOVERY FAQ SITE MAP
JPL Small-Body Database Browser
Search: [ help ]  
351547 (2005 TF36)
Classification: Main-belt Asteroid          SPK-ID: 2351547
Ephemeris | Orbit Diagram | Orbital Elements | Mission Design | Physical Parameters | Discovery Circumstances | Close-Approach Data ]

[ show orbit diagram ]
Orbital Elements at Epoch 2459000.5 (2020-May-31.0) TDB
Reference: JPL 12 (heliocentric ecliptic J2000)
 Element Value Uncertainty (1-sigma)   Units 
e .04926745369574498 5.7613e-08  
a 3.065674451651461 3.1222e-08 au
q 2.914636477558494 1.7234e-07 au
i 4.561963846664509 5.3579e-06 deg
node 162.2527542494363 7.2747e-05 deg
peri 350.5373730084159 0.00010728 deg
M 128.3199679490772 7.5169e-05 deg
tp 2458301.657641887673
(2018-Jul-02.15764189)
0.00041053 TDB
period 1960.593140268525
5.37
2.9951e-05
8.2e-08
d
yr
n .183617902463279 2.805e-09 deg/d
Q 3.216712425744427 3.276e-08 au
  Orbit Determination Parameters
   # obs. used (total)      213  
   data-arc span      8533 days (23.36 yr)  
   first obs. used      1997-03-04  
   last obs. used      2020-07-14  
   planetary ephem.      DE431  
   SB-pert. ephem.      SB431-N16  
   condition code      0  
   norm. resid. RMS      .57732  
   source      ORB  
   producer      Otto Matic  
   solution date      2020-Nov-11 16:43:26  

Additional Information
 Earth MOID = 1.92474 au 
 Jupiter MOID = 1.76114 au 
 T_jup = 3.226 
[ show covariance matrix ]

Ephemeris | Orbit Diagram | Orbital Elements | Mission Design | Physical Parameters | Discovery Circumstances | Close-Approach Data ]

Physical Parameter Table
Parameter Symbol Value Units Sigma Reference Notes
absolute magnitude H 16.3   n/a MPO437487  

351547 (2005 TF36)          Discovered 2005-Oct-01 by Spacewatch at Kitt Peak
Reference: 20130127/Numbers.arcLast Updated: 2013-01-31

[ hide close-approach data ]
Close-Approach Data   ...sorted by Date/Time (TDB)
Date/Time (TDB) Time Uncertainty
(days_HH:MM)
Body Nominal Distance (au) Minimum Distance (au) Maximum Distance (au) V-relative (km/s) V-infinity (km/s) JD (TDB) Time Uncertainty (minutes) Semi-major axis (km) Semi-minor axis (km) range-LOV angle (deg) N-sigma BP Orbit Ref. Reference Modified
1903-Oct-28 09:26 00:05 Jupiter 1.76728650096267 1.7672859862087 1.76728701571855 2.82772631620966 2.65282472369348 2416415.893210280 5.11959055245557 300.212046312076 14.9824912961291 -89.994186854517 2305185.43980347 T 12 CATAB v2.0f-lin.ifort 2020-Nov-11 16:43:27 2020-Nov-11 16:43
1952-Aug-25 14:02 00:03 Jupiter 1.89528962608471 1.89528841821132 1.89529083396026 3.30059187933082 3.16229160588214 2434250.084390195 2.8634664019362 136.60843363251 21.2919155900106 71.2025805900928 2159657.39881173 T 12 CATAB v2.0f-lin.ifort 2020-Nov-11 16:43:27 2020-Nov-11 16:43
1962-Mar-18 05:54 00:02 Jupiter 1.82825018099308 1.82824939062499 1.82825097136221 2.83624721852016 2.66790266348299 2437741.745619979 2.47462127519695 124.659985455896 18.5865551885143 -79.5752328600595 2104360.96602314 T 12 CATAB v2.0f-lin.ifort 2020-Nov-11 16:43:27 2020-Nov-11 16:43
2011-Jan-16 20:35 < 00:01 Jupiter 1.77613976451264 1.77613924438365 1.77614028464152 2.89544775113328 2.72577301951187 2455578.357548912 0.526640687586921 61.2508580508334 15.3597113598042 82.6844272929387 2315177.1735845 T 12 CATAB v2.0f-lin.ifort 2020-Nov-11 16:43:27 2020-Nov-11 16:43
2020-Aug-10 05:14 < 00:01 Jupiter 1.98910667623297 1.98910584049674 1.98910751196909 3.20010359898499 3.06414781263686 2459071.718058408 0.46612287255724 52.2251054815956 28.9611873268975 -76.3334833051787 1838140.30893928 T 12 CATAB v2.0f-lin.ifort 2020-Nov-11 16:43:27 2020-Nov-11 16:43
2059-Nov-13 01:38 00:02 Jupiter 1.96615425691049 1.96615323782228 1.96615527599914 3.50297527335155 3.37775553402385 2473410.567880279 2.03456735528191 83.0124771469813 25.4905188677273 65.6981381379189 2035453.52947136 T 12 CATAB v2.0f-lin.ifort 2020-Nov-11 16:43:27 2020-Nov-11 16:43
2069-Jun-07 11:00 00:03 Jupiter 1.78313402820358 1.78313324303189 1.78313481337739 2.80515581423727 2.63037282007386 2476904.958101548 2.52609337749734 145.919305000357 17.4217830873599 -80.9064918207533 2273234.13122176 T 12 CATAB v2.0f-lin.ifort 2020-Nov-11 16:43:27 2020-Nov-11 16:43
2118-Apr-09 00:11 00:05 Jupiter 1.81427106010769 1.81426995792106 1.81427216230442 3.00069859086363 2.84085530841871 2494741.507741652 4.73626260103155 256.966573307674 16.3611510065212 81.5296947405223 2286419.06438725 T 12 CATAB v2.0f-lin.ifort 2020-Nov-11 16:43:27 2020-Nov-11 16:43
2127-Oct-29 22:04 00:05 Jupiter 1.91329494087246 1.91329285401718 1.91329702773166 3.0460008493102 2.89701812529638 2498232.419606893 5.10862319085962 184.929217632696 26.9247330261674 -64.0060170803494 1804322.4974916 T 12 CATAB v2.0f-lin.ifort 2020-Nov-11 16:43:27 2020-Nov-11 16:43
2176-Aug-28 04:38 00:07 Jupiter 1.76558058624807 1.76557992262486 1.76558124988864 2.81483528215839 2.63890401440187 2516067.693281393 7.40544479506829 431.638644003215 15.8358367745907 -87.200117776559 2312184.07471617 T 12 CATAB v2.0f-lin.ifort 2020-Nov-11 16:43:27 2020-Nov-11 16:43

Alternate Designations
 2005 TF36 = 1997 EA22 
Ephemeris | Orbit Diagram | Orbital Elements | Mission Design | Physical Parameters | Discovery Circumstances | Close-Approach Data ]
ABOUT SSD CREDITS/AWARDS PRIVACY/COPYRIGHT GLOSSARY LINKS
FirstGov 2020-Dec-04 20:38 UT
(server date/time)  
NASA Home Page
Site Manager:   Ryan S. Park
Webmaster  Alan B. Chamberlin